Temperature
23 22 21 22 25 26 27 31 34 34 34 34 34 34 32 31 30 28 28 26 24 24 24 23 23 23 22 21 21 20 20 20 20 20 19 19 19 19 19 19 19 19 19 19 18 18 19 19 19
22 21 22 25 27 28 30 33 34 34 34 34 34 33 32 30 30 28 27 25 24 24 24 23 23 23 22 22 21 21 20 20 20 20 19 19 19 19 19 19 19 19 19 18 18 18 19 19 19
22 23 26 29 30 31 33 34 34 35 34 34 34 32 31 30 29 27 26 25 24 23 23 23 23 23 22 22 21 21 20 20 20 20 19 19 19 19 19 19 19 19 19 18 18 18 19 19 20
23 26 28 30 32 34 35 35 35 35 34 34 33 32 30 29 28 27 26 25 24 22 23 23 23 23 22 22 22 21 21 20 20 20 20 19 19 19 19 19 19 19 19 18 19 19 19 19 20
24 28 30 32 33 35 35 35 35 35 34 34 33 31 29 28 27 27 27 26 24 23 23 23 23 23 22 22 22 21 21 21 20 20 20 20 19 19 19 19 19 19 19 18 19 19 19 19 20
27 31 32 33 34 35 36 35 35 35 34 33 32 30 28 27 27 27 27 26 25 23 23 23 23 22 22 22 22 21 21 21 20 20 20 20 20 19 19 19 19 19 19 19 19 19 19 20 20
28 31 32 33 34 35 35 35 34 34 32 31 31 30 28 28 27 27 27 27 26 24 23 23 23 22 22 22 22 21 21 21 21 20 20 20 20 20 19 19 19 19 19 19 19 19 19 19 20
29 32 32 34 34 35 35 35 34 33 32 31 30 29 28 27 27 27 27 27 26 24 23 23 22 22 22 22 21 21 21 21 21 20 20 20 20 20 20 20 19 19 19 19 19 19 19 19 19
30 31 31 33 34 35 35 34 33 32 30 29 28 28 28 27 27 27 27 26 25 24 23 22 21 21 21 20 21 20 20 20 20 20 20 20 20 20 20 20 20 19 19 19 19 19 19 19 19
31 31 32 35 35 34 34 33 33 32 28 27 27 27 27 27 27 27 26 26 25 24 23 22 22 21 21 20 20 20 20 20 20 20 20 20 20 19 19 19 19 19 19 19 19 19 19 19 19
32 32 33 34 34 34 33 32 30 30 27 25 25 26 26 26 26 26 26 25 24 23 23 22 21 21 20 20 20 19 19 19 19 19 19 19 19 19 19 19 19 19 18 18 19 19 19 19 19
32 33 33 33 33 33 33 32 29 26 25 24 24 24 24 24 23 23 23 23 23 22 21 21 21 20 20 20 20 19 19 19 19 19 19 18 18 18 18 19 19 18 18 18 18 18 18 19 18
33 33 33 33 32 32 31 30 28 25 24 23 23 23 23 22 21 21 21 21 21 21 20 20 20 20 20 20 19 19 19 19 19 19 18 18 18 18 18 18 18 18 18 18 18 18 18 18 18
33 33 33 32 32 31 31 30 28 25 23 22 21 21 20 20 20 20 20 20 20 20 19 19 19 19 19 18 18 18 18 18 18 18 18 18 18 18 17 17 18 18 18 18 17 17 17 17 17
32 32 32 32 31 31 30 28 26 23 22 21 20 19 19 19 19 19 19 19 19 19 19 19 18 18 18 18 18 18 18 18 18 18 18 17 17 17 17 17 17 17 17 17 17 17 17 17 17
32 31 30 30 30 31 30 26 25 23 22 21 20 19 19 18 18 18 18 18 18 18 18 18 18 18 18 17 17 17 17 17 17 17 17 17 17 17 17 17 16 16 16 16 16 16 16 17 17
31 29 28 27 28 29 30 25 24 23 22 21 20 20 19 18 18 18 18 17 17 17 17 17 18 18 17 17 17 17 17 17 17 16 16 16 16 16 16 16 16 16 16 16 16 16 16 16 16
27 25 24 25 26 28 28 26 25 24 23 22 21 20 19 19 19 18 18 17 17 17 17 17 17 17 17 17 17 17 16 16 16 16 16 16 16 15 16 16 16 15 15 15 15 15 15 16 16
29 27 24 25 27 28 27 26 25 24 24 23 22 21 20 20 19 18 18 18 18 17 17 17 17 16 16 16 16 16 16 16 16 16 16 15 15 15 15 15 15 15 15 15 15 15 15 15 15
30 29 27 26 26 27 27 26 26 25 24 23 22 21 21 20 19 19 19 19 18 17 17 17 16 16 16 15 15 15 15 15 16 16 15 15 14 14 14 14 14 14 15 15 15 15 15 15 15
29 28 27 26 26 27 26 25 24 25 24 23 23 22 22 21 21 20 19 19 19 18 17 17 16 16 15 15 15 15 15 15 15 15 15 15 14 14 14 14 14 14 14 14 14 14 15 15 15
27 28 28 27 26 25 24 22 21 22 24 24 23 23 22 22 21 20 20 19 19 18 18 17 16 16 15 14 14 14 14 14 14 14 14 14 14 14 14 14 14 14 14 14 14 14 14 15 15
29 29 28 26 24 23 21 20 20 21 22 23 24 24 23 22 21 21 20 19 19 18 18 17 16 15 15 14 13 13 13 13 13 13 13 13 13 14 14 14 14 13 13 13 14 14 14 14 15
31 30 27 23 22 20 19 18 19 21 22 23 24 24 23 22 22 21 20 20 19 18 17 17 16 15 14 14 13 12 12 12 12 12 12 13 13 13 14 14 13 13 13 13 13 13 14 14 14
30 28 25 21 18 18 20 19 20 23 24 25 25 24 23 23 22 21 20 20 19 18 17 16 16 15 14 13 13 12 12 11 11 12 12 12 12 13 13 13 13 12 12 12 12 12 13 13 14
29 29 25 24 23 22 21 20 22 24 25 25 25 24 24 23 22 21 20 19 19 18 17 16 15 14 13 13 12 12 11 11 11 11 11 11 11 11 12 12 12 12 12 12 12 12 12 12 13
29 29 29 28 27 25 23 22 22 24 25 25 25 24 24 23 22 21 20 19 18 17 16 15 14 14 13 12 12 11 11 11 10 10 10 10 10 11 11 11 11 11 11 11 11 11 11 12 12
30 29 29 27 26 26 25 23 22 24 25 25 25 24 23 22 21 20 19 18 17 16 15 15 14 13 12 12 11 11 11 10 10 9 9 9 10 10 10 10 10 10 11 11 11 11 11 11 11
29 29 28 28 27 26 25 24 25 25 25 25 25 24 22 21 20 19 18 17 16 15 15 14 13 12 12 11 11 10 10 10 9 9 9 9 9 9 9 9 9 10 10 10 10 11 11 11 11
29 29 28 26 26 27 26 24 26 26 26 25 24 23 21 20 19 18 17 16 15 15 14 13 12 12 11 11 10 10 10 9 9 9 9 9 9 8 8 8 9 9 9 9 10 10 11 11 11
Wind_Speed
13 14 11 8 5 5 5 5 10 12 12 11 9 11 19 17 12 8 11 18 24 22 20 19 18 16 14 12 11 11 11 12 12 12 11 11 10 10 10 9 8 8 8 8 9 9 9 8 8
13 13 10 6 7 5 1 7 10 10 8 5 9 14 18 17 13 11 13 18 23 21 19 18 18 16 14 12 11 11 11 11 12 12 12 11 11 10 10 9 8 8 7 8 8 9 9 8 8
13 14 8 7 10 4 5 9 7 6 7 6 11 15 12 11 12 10 14 18 21 19 18 19 19 16 14 13 11 11 11 11 12 12 12 11 10 10 9 9 9 8 8 8 8 9 9 8 7
8 9 7 10 13 4 7 8 5 6 7 5 10 12 11 9 10 14 15 20 21 19 19 20 18 16 15 13 11 10 10 10 11 11 11 11 10 10 10 9 9 9 8 8 9 9 9 9 8
10 7 12 14 12 3 6 5 3 5 6 7 14 15 13 12 14 15 14 19 18 19 19 19 18 16 14 13 11 10 10 9 9 9 9 9 9 10 10 10 10 10 9 9 9 10 10 10 9
7 9 13 12 5 1 4 5 6 6 9 9 11 16 10 11 12 13 14 15 18 20 18 18 17 15 14 12 11 10 9 9 8 8 9 9 9 9 10 10 11 11 11 11 11 11 11 11 11
10 13 18 19 9 2 3 6 7 8 10 7 6 11 11 11 10 12 12 12 16 20 19 15 15 14 13 12 11 10 9 9 9 9 9 9 10 11 11 12 12 12 12 12 12 12 12 12 12
12 13 19 19 13 2 6 5 7 7 7 8 10 9 9 11 11 12 10 10 11 16 18 15 15 14 13 12 13 12 11 10 10 10 10 11 11 12 13 13 14 14 14 14 14 14 14 14 14
15 14 17 17 10 3 7 6 6 6 12 16 15 12 11 11 12 11 10 10 9 10 13 11 13 13 11 13 15 14 12 12 12 12 13 12 12 14 15 18 18 19 18 17 16 16 15 15 15
14 14 19 13 8 7 6 5 6 4 14 14 12 11 9 9 8 7 8 9 9 7 8 7 7 8 5 4 11 11 11 12 14 13 14 13 13 13 15 18 24 22 21 19 19 18 17 16 14
17 18 18 15 7 6 6 4 7 8 12 11 10 9 6 8 7 6 7 6 8 8 7 7 6 6 5 4 3 2 4 6 12 13 12 12 11 11 12 8 13 18 19 16 17 17 16 15 13
18 17 16 12 8 5 6 4 8 14 10 10 10 9 9 11 12 13 13 12 10 10 10 10 9 9 8 7 5 2 2 1 2 6 9 6 4 5 5 3 5 9 11 10 11 10 13 14 14
16 14 14 9 5 4 2 2 7 12 10 10 10 12 14 15 15 15 14 15 14 13 12 11 10 9 7 6 5 5 5 4 5 3 4 5 4 6 6 4 3 6 7 6 8 8 10 10 9
12 11 10 6 4 3 3 4 6 9 9 10 11 12 13 14 15 14 15 14 14 13 12 10 9 8 7 5 4 5 5 5 6 4 6 5 4 5 6 7 7 6 7 7 6 9 9 9 8
12 12 10 7 7 7 8 6 7 8 8 9 9 9 10 11 12 13 13 12 12 12 11 9 8 9 7 6 6 5 4 5 5 5 8 7 6 6 6 6 6 6 8 8 6 7 7 8 9
12 14 11 4 3 7 9 7 8 8 8 7 7 8 9 9 10 10 11 10 10 10 10 10 9 9 8 6 5 5 4 4 3 4 6 7 8 7 4 5 5 4 5 6 7 7 8 8 8
10 8 2 2 5 6 6 10 8 8 8 8 7 8 8 8 9 9 10 10 9 8 8 7 7 8 8 7 5 5 4 3 3 3 4 6 7 7 4 3 3 3 4 5 8 7 7 8 8
4 3 2 5 6 7 4 10 10 9 8 9 8 8 8 8 8 8 8 8 8 7 6 6 6 7 7 6 6 5 5 5 4 2 4 6 6 6 4 4 3 3 3 4 5 7 7 7 7
9 9 9 7 5 3 6 9 9 9 9 9 9 9 9 9 9 7 6 7 7 6 5 4 4 5 5 5 6 6 5 5 4 2 3 4 5 6 4 4 4 3 2 2 4 4 5 5 6
7 3 4 2 4 6 4 8 10 9 8 9 10 10 10 10 8 7 5 5 5 4 2 1 3 5 5 5 6 5 6 6 5 2 1 1 2 4 5 4 4 3 3 2 2 2 2 4 4
8 9 4 3 6 7 4 5 7 7 8 8 9 9 9 8 7 6 3 2 1 1 0 2 3 3 4 6 6 7 7 6 5 5 3 3 3 3 3 4 4 4 3 2 2 2 2 3 4
4 7 7 5 5 5 4 3 5 8 9 9 10 8 7 6 5 4 2 0 2 2 3 3 3 3 4 6 7 9 9 9 8 6 5 6 6 5 4 3 3 3 4 4 4 2 2 3 3
4 4 2 5 5 6 5 4 4 8 7 8 9 9 7 5 4 3 2 2 3 4 5 4 4 4 5 6 8 9 9 8 8 9 10 9 8 7 5 4 2 2 3 3 4 4 3 2 3
7 5 4 9 7 5 4 3 5 9 12 11 9 7 5 3 3 3 3 2 3 4 5 5 5 5 6 6 8 8 9 9 10 11 11 10 7 5 5 3 2 2 2 3 4 4 5 4 4
9 8 4 4 1 6 8 5 4 8 10 8 7 5 3 2 2 2 3 4 4 5 5 5 6 7 6 7 7 7 8 9 10 11 9 9 7 7 7 6 2 3 3 4 4 4 5 5 5
8 8 5 7 5 3 6 5 4 7 7 6 3 2 0 2 3 5 6 6 6 7 7 6 6 6 6 7 7 7 9 8 7 9 10 10 9 9 9 8 5 5 5 6 5 4 5 5 5
8 10 11 9 9 1 6 6 6 5 5 3 2 3 4 6 7 8 9 9 8 8 7 7 7 6 6 7 8 8 7 7 9 9 10 9 8 10 10 10 10 8 7 7 6 6 6 5 5
7 10 9 8 8 7 4 6 6 5 3 5 6 7 7 8 9 11 11 11 10 9 8 8 7 7 7 8 7 10 8 8 8 9 9 9 9 9 10 10 10 9 9 8 8 7 7 8 7
8 8 8 8 9 8 6 6 8 4 4 6 7 7 8 9 11 11 10 10 10 11 9 8 8 8 7 7 7 7 8 8 9 8 9 8 9 9 10 10 10 10 10 10 9 9 9 9 8
4 5 7 7 9 8 7 6 4 3 6 7 8 9 9 9 10 10 11 10 10 11 11 10 10 9 8 8 7 8 8 8 9 10 9 9 9 10 10 10 11 12 12 11 11 11 11 10 10
Wind_Direction
181 194 205 224 238 240 285 3 45 42 50 50 47 51 60 52 51 76 90 103 112 122 132 136 135 135 133 130 130 136 145 152 153 151 149 148 149 149 148 146 145 145 141 138 135 131 129 124 120
195 204 214 239 240 244 5 36 49 54 53 54 61 59 68 63 69 90 97 113 119 126 138 139 139 139 137 133 133 138 146 153 156 156 155 155 156 158 159 159 160 162 157 151 146 141 137 134 131
225 232 248 250 256 270 36 49 42 73 66 56 77 66 58 67 77 97 117 126 123 128 133 135 143 142 141 140 140 144 149 154 158 159 160 161 163 165 169 171 173 175 173 167 159 153 148 147 148
234 230 240 253 274 356 41 45 25 66 77 47 82 82 75 60 86 110 132 129 122 131 133 140 145 145 146 146 148 150 154 158 163 166 167 170 172 175 179 182 184 186 186 180 174 167 162 162 165
243 255 248 259 277 6 49 44 10 55 85 67 89 96 90 87 100 123 137 126 134 137 133 142 146 147 149 152 155 159 164 168 171 174 178 181 184 188 191 192 193 194 194 188 181 176 174 176 178
253 255 267 279 279 9 47 41 20 38 55 49 92 108 101 112 122 132 132 138 137 132 132 140 146 149 153 158 162 167 173 179 184 187 191 195 200 204 206 204 201 202 202 196 190 187 188 188 189
256 277 286 290 286 285 65 32 22 50 58 34 49 103 125 127 128 129 134 135 134 130 132 144 150 154 160 167 173 178 183 190 196 201 205 209 213 216 218 216 213 210 207 202 199 197 197 198 198
265 284 286 285 285 301 79 58 45 44 62 52 45 82 125 127 135 127 137 128 119 127 135 149 157 157 167 176 184 188 192 198 205 212 216 219 223 225 225 224 220 217 213 211 210 208 206 205 206
263 268 272 280 307 15 54 35 28 53 63 51 43 63 106 123 126 135 137 125 116 118 131 146 152 157 177 182 180 186 198 206 209 217 222 224 229 227 221 224 221 216 216 216 216 215 214 211 213
240 257 266 291 348 347 17 20 348 24 57 41 33 48 80 109 117 134 136 134 133 122 111 98 118 140 168 176 157 183 198 201 208 219 213 214 230 242 241 222 215 215 215 217 218 219 219 218 221
244 254 275 299 332 334 327 37 33 31 54 32 27 33 57 82 85 87 96 109 118 112 82 82 74 77 55 47 115 191 213 195 203 224 224 216 228 241 252 247 212 212 216 219 221 220 221 221 223
249 258 277 291 318 327 310 354 61 57 52 33 30 30 47 59 57 57 60 61 73 75 67 51 49 50 39 26 3 323 315 280 223 218 227 233 231 254 263 262 237 209 213 214 223 218 217 222 224
246 252 266 278 284 279 268 66 77 65 55 46 42 42 45 49 54 55 57 58 58 57 53 47 46 45 33 19 344 339 329 324 316 308 278 262 257 261 270 271 275 263 244 220 219 221 219 219 220
268 257 251 247 250 210 199 118 89 71 69 61 51 48 48 48 48 52 51 51 52 51 47 39 44 39 24 0 339 316 314 324 318 333 336 327 299 284 272 272 268 266 267 263 240 233 233 228 226
258 259 243 215 207 182 169 119 91 88 86 80 73 66 59 57 56 55 54 54 54 53 44 27 49 38 23 6 354 340 337 346 345 350 340 336 321 304 290 277 272 267 269 272 271 261 244 234 230
242 240 234 225 233 193 208 117 101 109 107 97 91 85 77 67 68 68 69 66 65 62 55 40 34 29 16 11 353 340 344 353 346 349 348 350 341 325 309 294 288 286 282 277 269 258 256 250 242
245 261 256 351 311 258 201 123 131 130 121 112 104 99 94 89 83 80 81 78 75 70 64 59 46 26 4 2 355 349 346 344 337 8 15 1 348 344 329 312 305 297 283 282 274 258 247 249 250
330 332 305 253 250 245 141 127 136 133 130 123 119 115 111 104 96 94 94 97 93 84 67 48 50 37 360 6 352 354 352 354 342 17 41 10 356 354 337 310 312 310 301 302 290 276 263 248 242
222 198 185 212 249 268 158 144 145 147 145 135 131 126 123 117 117 118 118 114 107 97 85 60 35 33 -0 12 348 336 337 338 318 320 64 22 5 349 320 322 312 301 287 296 305 275 269 251 242
273 259 160 194 329 301 189 154 144 152 145 141 140 141 138 133 132 134 137 127 114 110 99 123 42 27 358 4 322 304 323 315 296 331 21 0 7 340 333 335 314 311 296 288 292 277 277 280 258
321 342 325 253 238 252 240 160 136 141 141 148 144 144 139 141 139 141 139 128 125 99 19 24 36 5 5 345 319 331 325 312 317 335 322 348 335 305 295 315 321 322 311 303 288 270 261 276 275
324 297 286 269 253 272 235 207 175 176 177 169 158 159 154 149 152 157 180 257 307 339 351 29 23 12 358 341 336 330 316 312 321 323 329 330 311 291 275 267 302 320 316 317 304 315 284 272 280
278 224 299 351 342 323 5 355 228 186 190 185 174 169 165 169 175 171 243 277 315 339 346 2 11 10 358 346 330 323 316 322 321 321 314 308 296 270 258 242 234 280 294 318 325 323 305 277 264
297 300 17 31 20 340 282 241 231 194 194 188 180 167 172 187 211 220 259 292 323 332 340 351 360 356 352 340 326 316 316 315 311 303 294 291 288 288 282 273 227 259 298 314 308 309 302 287 273
312 301 317 356 56 253 239 230 215 187 171 164 154 157 166 206 259 280 320 340 344 338 344 350 350 351 346 331 318 315 313 308 296 293 305 317 318 315 314 308 289 280 281 280 274 276 284 288 281
299 304 306 306 293 231 191 206 143 124 110 109 103 89 332 317 352 350 352 354 350 347 350 350 347 342 334 324 315 311 301 300 306 321 325 313 302 295 292 303 297 273 258 262 258 260 261 263 268
328 333 330 313 315 324 149 135 111 138 147 122 36 357 356 7 356 351 355 353 356 354 352 347 345 339 332 322 311 295 298 317 316 309 299 298 302 305 313 321 310 294 275 259 253 251 251 252 251
329 330 341 337 339 341 69 115 141 156 69 23 356 2 10 2 355 357 353 348 351 346 345 345 345 339 328 317 315 317 325 312 304 305 302 298 294 292 293 290 289 286 279 263 244 245 243 234 234
340 356 355 341 346 337 358 78 103 77 34 6 360 7 7 0 354 347 345 347 344 338 338 341 337 331 325 322 319 314 310 311 306 298 297 299 301 301 296 293 289 285 280 273 257 245 247 243 238
322 360 352 347 342 327 331 100 83 50 51 33 12 10 8 359 348 343 343 343 339 336 335 333 331 324 322 323 320 314 312 306 302 302 303 301 298 296 296 292 288 284 280 274 265 252 246 240 237
Height
1503 1504 1506 1509 1507 1503 1496 1474 1462 1461 1462 1464 1465 1464 1468 1474 1481 1493 1494 1493 1493 1495 1498 1502 1505 1508 1511 1513 1516 1518 1521 1523 1525 1528 1529 1531 1533 1534 1536 1537 1538 1540 1541 1542 1544 1545 1546 1547 1548
1502 1504 1508 1506 1500 1502 1489 1469 1465 1464 1465 1465 1465 1467 1472 1480 1484 1490 1493 1495 1495 1496 1499 1502 1505 1508 1511 1514 1516 1519 1521 1523 1526 1528 1530 1531 1533 1535 1536 1538 1539 1540 1542 1543 1544 1545 1546 1548 1549
1503 1506 1507 1496 1486 1485 1477 1465 1464 1462 1465 1465 1467 1472 1478 1485 1488 1491 1494 1496 1497 1498 1500 1503 1506 1509 1511 1514 1516 1519 1521 1523 1526 1528 1530 1531 1533 1535 1536 1538 1539 1541 1542 1544 1545 1546 1547 1548 1549
1504 1506 1502 1492 1481 1468 1464 1463 1463 1463 1467 1466 1467 1475 1484 1488 1490 1493 1495 1497 1498 1500 1501 1505 1507 1510 1512 1514 1517 1519 1521 1524 1526 1528 1530 1531 1533 1535 1536 1538 1539 1541 1542 1543 1545 1546 1547 1548 1550
1506 1501 1493 1484 1473 1463 1460 1462 1463 1463 1466 1467 1470 1479 1486 1491 1492 1494 1497 1498 1500 1502 1503 1506 1508 1511 1513 1515 1517 1520 1522 1524 1526 1528 1530 1531 1533 1534 1536 1537 1539 1540 1542 1543 1544 1545 1547 1548 1549
1504 1493 1488 1481 1470 1462 1460 1463 1464 1465 1467 1470 1473 1478 1488 1492 1494 1496 1498 1500 1502 1503 1504 1507 1510 1512 1514 1516 1518 1520 1522 1524 1526 1528 1529 1531 1532 1534 1535 1536 1538 1539 1541 1542 1543 1544 1546 1547 1548
1503 1492 1485 1475 1467 1463 1462 1465 1468 1469 1473 1475 1477 1480 1488 1491 1494 1497 1500 1502 1504 1505 1505 1509 1511 1513 1515 1517 1519 1521 1523 1524 1526 1527 1529 1530 1532 1533 1534 1535 1537 1538 1539 1540 1542 1543 1544 1545 1546
1498 1492 1485 1473 1467 1464 1462 1466 1470 1473 1477 1478 1479 1485 1490 1492 1495 1498 1501 1504 1506 1507 1508 1510 1512 1514 1516 1518 1520 1521 1523 1524 1526 1527 1528 1529 1530 1531 1532 1534 1535 1536 1537 1538 1539 1541 1542 1543 1544
1498 1495 1489 1473 1466 1464 1465 1469 1473 1476 1480 1483 1486 1488 1492 1494 1496 1500 1503 1505 1508 1510 1511 1513 1514 1515 1517 1519 1520 1522 1523 1524 1525 1526 1527 1528 1528 1529 1530 1531 1532 1534 1535 1535 1537 1538 1539 1540 1541
1493 1491 1480 1467 1465 1467 1469 1474 1477 1479 1485 1490 1492 1493 1495 1497 1498 1500 1503 1506 1509 1512 1513 1514 1516 1517 1519 1521 1521 1522 1522 1523 1524 1524 1525 1526 1527 1527 1529 1529 1530 1530 1531 1532 1533 1534 1535 1536 1537
1485 1483 1475 1469 1469 1471 1473 1477 1481 1483 1492 1498 1497 1498 1497 1498 1500 1501 1504 1507 1509 1512 1514 1515 1517 1517 1519 1521 1522 1522 1523 1523 1523 1524 1524 1524 1524 1525 1526 1527 1526 1526 1526 1527 1528 1529 1530 1531 1532
1481 1478 1474 1472 1473 1476 1478 1480 1486 1492 1499 1502 1501 1500 1500 1500 1501 1502 1503 1506 1508 1510 1512 1514 1515 1516 1518 1519 1521 1522 1523 1523 1523 1523 1522 1522 1522 1522 1523 1523 1523 1522 1521 1521 1522 1523 1524 1525 1527
1475 1475 1474 1473 1475 1477 1480 1483 1489 1497 1501 1503 1503 1503 1502 1503 1504 1504 1505 1507 1508 1510 1512 1514 1515 1516 1518 1518 1519 1520 1520 1521 1522 1521 1520 1520 1519 1518 1518 1518 1519 1518 1518 1517 1517 1518 1519 1520 1522
1472 1472 1472 1473 1476 1478 1481 1485 1491 1500 1503 1505 1506 1506 1506 1506 1507 1507 1507 1508 1510 1511 1513 1515 1516 1516 1517 1517 1518 1518 1518 1519 1519 1518 1517 1516 1514 1513 1513 1513 1512 1512 1512 1512 1512 1512 1513 1514 1516
1474 1473 1472 1473 1475 1478 1482 1489 1496 1502 1505 1507 1509 1509 1509 1509 1509 1510 1510 1511 1512 1513 1514 1515 1516 1516 1516 1517 1516 1516 1516 1516 1515 1514 1513 1512 1510 1508 1507 1506 1505 1505 1505 1505 1505 1505 1506 1508 1510
1472 1475 1479 1475 1475 1476 1482 1497 1499 1503 1506 1508 1510 1511 1512 1512 1512 1513 1513 1513 1514 1514 1515 1516 1517 1516 1516 1516 1515 1515 1514 1513 1512 1511 1509 1507 1506 1504 1502 1500 1499 1499 1498 1497 1498 1498 1499 1502 1504
1475 1485 1489 1487 1481 1478 1479 1496 1500 1503 1506 1508 1510 1512 1513 1514 1515 1515 1515 1516 1516 1516 1517 1517 1517 1516 1516 1516 1515 1514 1513 1511 1510 1508 1506 1504 1502 1500 1498 1496 1495 1493 1492 1491 1491 1491 1493 1495 1497
1492 1497 1502 1498 1488 1481 1482 1492 1496 1501 1504 1507 1510 1512 1514 1515 1516 1517 1517 1517 1518 1518 1518 1518 1517 1516 1516 1515 1514 1512 1511 1509 1508 1506 1503 1501 1499 1497 1495 1493 1491 1489 1488 1487 1486 1485 1487 1489 1491
1477 1484 1497 1494 1485 1482 1484 1490 1494 1500 1503 1506 1509 1512 1514 1516 1517 1518 1518 1519 1519 1519 1518 1518 1517 1516 1514 1513 1511 1510 1509 1507 1505 1504 1501 1498 1496 1494 1492 1490 1488 1486 1484 1482 1482 1481 1483 1484 1486
1472 1479 1489 1487 1483 1485 1486 1489 1492 1498 1501 1505 1508 1511 1513 1515 1517 1518 1519 1519 1519 1519 1518 1517 1516 1514 1513 1512 1510 1509 1507 1505 1504 1502 1499 1496 1494 1492 1490 1488 1485 1483 1481 1480 1479 1479 1479 1480 1482
1474 1481 1486 1488 1485 1484 1490 1496 1497 1498 1503 1506 1508 1509 1511 1513 1515 1517 1518 1519 1519 1518 1517 1516 1514 1512 1511 1509 1507 1506 1504 1502 1501 1499 1497 1494 1492 1490 1487 1485 1483 1482 1480 1478 1478 1478 1477 1478 1478
1484 1479 1479 1485 1492 1497 1497 1511 1507 1501 1502 1504 1506 1509 1510 1512 1514 1516 1517 1517 1517 1517 1516 1514 1512 1510 1508 1506 1505 1502 1501 1499 1497 1496 1494 1491 1489 1487 1485 1483 1481 1479 1478 1477 1476 1476 1476 1476 1476
1474 1473 1479 1487 1497 1505 1512 1524 1516 1505 1505 1502 1503 1506 1508 1510 1512 1514 1515 1515 1515 1515 1514 1512 1510 1508 1505 1503 1502 1500 1497 1495 1493 1491 1489 1487 1485 1484 1482 1480 1478 1477 1476 1475 1474 1474 1474 1474 1474
1466 1471 1481 1493 1507 1526 1524 1531 1522 1506 1503 1500 1501 1503 1507 1508 1510 1511 1512 1512 1512 1512 1511 1509 1507 1505 1503 1501 1499 1497 1494 1491 1488 1486 1484 1482 1481 1481 1479 1478 1476 1474 1473 1472 1471 1471 1471 1471 1471
1470 1480 1500 1519 1535 1533 1516 1525 1512 1496 1493 1495 1498 1502 1504 1506 1508 1509 1510 1510 1509 1509 1508 1506 1504 1502 1500 1497 1495 1493 1490 1487 1484 1482 1480 1478 1477 1476 1475 1474 1472 1471 1470 1469 1468 1467 1467 1467 1467
1471 1475 1499 1514 1512 1512 1513 1520 1503 1493 1494 1497 1498 1500 1503 1504 1505 1507 1507 1507 1507 1506 1505 1503 1501 1498 1496 1494 1491 1488 1486 1483 1480 1478 1476 1473 1472 1471 1470 1470 1468 1467 1466 1466 1465 1464 1464 1463 1463
1473 1473 1469 1480 1482 1494 1504 1504 1501 1494 1494 1495 1497 1498 1500 1503 1504 1505 1506 1505 1504 1503 1502 1500 1497 1494 1492 1489 1487 1484 1481 1478 1476 1473 1470 1468 1467 1465 1464 1463 1462 1462 1461 1461 1461 1460 1460 1459 1459
1471 1471 1475 1484 1497 1499 1496 1500 1507 1498 1494 1494 1496 1497 1500 1502 1504 1504 1504 1504 1502 1501 1499 1496 1494 1491 1488 1485 1482 1480 1477 1473 1470 1468 1465 1463 1461 1459 1457 1456 1455 1455 1455 1455 1455 1455 1455 1455 1454
1476 1477 1480 1481 1484 1498 1501 1506 1491 1492 1493 1494 1495 1498 1500 1502 1503 1504 1503 1502 1500 1498 1496 1493 1490 1487 1484 1481 1478 1475 1471 1468 1465 1463 1460 1458 1455 1453 1451 1449 1448 1448 1448 1448 1449 1449 1449 1449 1449
1473 1478 1481 1495 1496 1489 1491 1504 1486 1488 1490 1493 1496 1498 1500 1502 1502 1502 1501 1499 1498 1495 1493 1490 1487 1484 1481 1477 1474 1470 1467 1464 1461 1458 1455 1452 1449 1447 1445 1443 1442 1441 1440 1441 1441 1442 1442 1443 1444